KINEIS-1A

Satellite information

Favourite Embed

Satellite Type and Status

PAYLOADIN ORBIT

Key statistics

Satellite KINEIS-1A at a glance.

Uptime

326

Days in orbit

Revolutions

≈ 14.8

Per day

Orbit

SSO

Sun Synchronous Orbit

Inclination

98.0

Latest

Satellite identification and parameters

Extended collection of information and parameters for KINEIS-1A.

Object identification

Identified? True

Debris? False

Object name: KINEIS-1A

International designator: 2024-114F

Object number (NORAD): 60084

Object ID (CCSDS): 60084

Country: FRANCE (FR)

Current information (Y/N): Y

RCS size: MEDIUM

Orbital parameters

Period: 97.321 minutes

Inclination: 98.0116 deg

SMA: 7008.599 km

Apoapsis: 632.818 km

Periapsis: 628.11 km

RAAN: 152.5744 deg

Eccentricy: 0.0003359

Argument of periapsis: 15.3841 deg

Mean anomaly: 344.7472 deg

Mean motion: 14.79639531 rev/day

Mean motion (dot): 0.00001125 rev/day2

B* drag term: 0.00015709 1/REarth

Two-line elements (TLE)

Creation date: May 12, 2025, 2:31 a.m.

Reference frame: TEME

Reference center: EARTH

Epoch: May 11, 2025, 9:51 p.m. UTC

TLE line 0: 0 KINEIS-1A

TLE line 1: 1 60084U 24114F 25131.91071526 .00001125 00000-0 15709-3 0 9997

TLE line 2: 2 60084 98.0116 152.5744 0003359 15.3841 344.7472 14.79639531 48039

Live tracking on map

Real-time ground track for satellite KINEIS-1A.

In-orbit conjunctions

There are no conjunctions computed for KINEIS-1A, at the moment. Check back to stay up to date, as we update our databases every day.

Go to all conjunctions

Associated space launch

First batch of five satellites for the French Kinéis IoT constellation designed to operate with 25 nanosatellites of 30 kg each.

KINEIS-1A was lifted into orbit during the mission ‘Electron | No Time Toulouse (Kinéis 1-5)’, on board a Electron space rocket.

The launch took place on June 20, 2024, 6:13 p.m. from Rocket Lab Launch Complex 1B.

For more information about the launch, click the button.

Launch to space Electron | No Time Toulouse (Kinéis 1-5)
Electron | No Time Toulouse (Kinéis 1-5)

Agency: Kinéis

Status: Launch Successful

Launch date: June 20, 2024, 6:13 p.m. UTC

Rocket: Electron

Launch pad: Rocket Lab Launch Complex 1B

Location: Rocket Lab Launch Complex 1, Mahia Peninsula, New Zealand

...

Latest news about this satellite

News about space launch
Rocket Report: Electron turns 50, China’s Moon launcher breathes fire

"Most rocket startups are still stuck in the long process of reengineering."

News about space launch
Rocket Lab launches first Kinéis satellites on 50th Electron

Rocket Lab successfully launched the first set of satellites for a French startup June 20 on the 50th flight of its Electron rocket.

News about space launch
Rocket Lab successfully launches its 50th Electron rocket

Rocket Lab's Electron rocket made history by reaching its 50th launch faster than any other commercially developed orbital launch vehicle. Liftoff from New Zealand took place at 6:13 a.m. NZST on Friday, June 21 (2:13 p.m. EDT, 1813 UTC on Thursday, June ...


Newsletter sign-up

Weekly statistics, charts and insights to help you stay on top of the space industry.